Weather History for Cancun, Mexico

Change the Weather History Date:

Monday, September 24, 2012

  Actual Average Record
Temperature  
Mean Temperature 76 °F -  
Max Temperature 82 °F 88 °F 93 °F (2003)
Min Temperature 69 °F 73 °F 68 °F (2011)
Cooling Degree Days 10    
Growing Degree Days 26 (Base 50)    
Moisture  
Dew Point 73 °F    
Average Humidity 93    
Maximum Humidity 100    
Minimum Humidity 78    
Precipitation  
Precipitation 7.35 in - - ()
Sea Level Pressure  
Sea Level Pressure 30.00 in    
Wind  
Wind Speed 4 mph ()    
Max Wind Speed 10 mph    
Max Gust Speed 26 mph    
Visibility 5.7 miles    
Events Rain , Thunderstorm    
Averages and records for this station are not official NWS values.
T = Trace of Precipitation, MM = Missing Value Source: Averaged Metar Reports

Daily Weather History Graph

Daily Weather History Graph

Search for Another Location

Airport:

Trip Planner

Search our weather history database for the weather conditions in past years. The results will help you decide how hot, cold, wet, or windy it might be!

Date:

Astronomy

Sep. 24, 2012 Rise Set
Actual Time 6:36 AM CDT 6:41 PM CDT
Civil Twilight 6:14 AM CDT 7:03 PM CDT
Nautical Twilight 5:49 AM CDT 7:29 PM CDT
Astronomical Twilight 5:23 AM CDT 7:55 PM CDT
Moon 2:54 PM CDT (9/24) 1:29 AM CDT (9/24)
Length of Visible Light 12h 48m
Length of Day
12h 04m
Waxing Gibbous, 71% of the Moon is Illuminated
Sep 24
Waxing Gibbous
Sep 29
Full
Oct 8
Last Quarter
Oct 15
New
Oct 21
First Quarter

Hourly Weather History & Observations

Time (CDT) Temp. Heat Index Dew Point Humidity Pressure Visibility Wind Dir Wind Speed Gust Speed Precip Events Conditions
12:45 AM 77.0 °F - 75.2 °F 94% 30.00 in 7.0 mi NE 5.8 mph - N/A   Overcast
1:44 AM 77.0 °F - 73.4 °F 89% 30.00 in 7.0 mi Calm Calm - N/A   Overcast
2:43 AM 75.2 °F - 73.4 °F 94% 30.02 in 7.0 mi Calm Calm - N/A   Overcast
2:59 AM 73.4 °F - 73.4 °F 100% 30.03 in 4.0 mi SW 10.4 mph 26.5 mph N/A Rain , Thunderstorm Thunderstorms and Rain
3:46 AM 71.6 °F - 71.6 °F 100% 29.99 in 3.0 mi NW 5.8 mph - N/A Rain , Thunderstorm Thunderstorms and Rain
4:45 AM 69.8 °F - 69.8 °F 100% 29.96 in 4.0 mi North 5.8 mph - N/A Rain Rain
5:44 AM 69.8 °F - 69.8 °F 100% 29.98 in 5.0 mi NNW 5.8 mph - N/A Rain Light Rain
6:43 AM 73.4 °F - 71.6 °F 94% 30.00 in 6.0 mi North 5.8 mph - N/A Rain Light Rain
7:45 AM 73.4 °F - 71.6 °F 94% 29.99 in 6.0 mi NW 4.6 mph - N/A   Overcast
8:40 AM 75.2 °F - 73.4 °F 94% 30.02 in 6.0 mi NNW 4.6 mph - N/A   Overcast
9:44 AM 78.8 °F - 77.0 °F 94% 30.02 in 6.0 mi North 3.5 mph - N/A   Mostly Cloudy
10:42 AM 82.4 °F 89.5 °F 75.2 °F 79% 30.03 in 6.0 mi NNE 6.9 mph - N/A   Mostly Cloudy
11:40 AM 82.4 °F 89.5 °F 75.2 °F 79% 30.03 in 6.0 mi Calm Calm - N/A   Overcast
11:48 AM 77.0 °F - 69.8 °F 78% 30.04 in 6.0 mi SE 6.9 mph - N/A Rain Light Rain
12:40 PM 75.2 °F - 73.4 °F 94% 30.02 in 6.0 mi NW 3.5 mph - N/A Rain Light Rain
1:08 PM 75.2 °F - 73.4 °F 94% 30.01 in 1.5 mi NNE 8.1 mph - N/A Rain Rain
1:21 PM 73.4 °F - 71.6 °F 94% 30.01 in 6.0 mi North 6.9 mph - N/A Rain Light Rain
1:40 PM 73.4 °F - 69.8 °F 88% 30.00 in 6.0 mi North 5.8 mph - N/A   Overcast
2:40 PM 73.4 °F - 71.6 °F 94% 29.98 in 6.0 mi NE 6.9 mph - N/A Rain Light Rain
3:48 PM 73.4 °F - 71.6 °F 94% 29.98 in 6.0 mi NNW 5.8 mph - N/A   Overcast
4:42 PM 75.2 °F - 73.4 °F 94% 29.97 in 6.0 mi NNW 8.1 mph - N/A   Overcast
5:40 PM 75.2 °F - 73.4 °F 94% 29.98 in 6.0 mi East 6.9 mph - N/A   Overcast
6:41 PM 75.2 °F - 71.6 °F 89% 29.97 in 6.0 mi Calm Calm - N/A   Overcast
7:40 PM 75.2 °F - 73.4 °F 94% 29.97 in 6.0 mi North 6.9 mph - N/A   Overcast
8:48 PM 75.2 °F - 73.4 °F 94% 29.99 in 6.0 mi North 4.6 mph - N/A   Overcast
9:47 PM 73.4 °F - 73.4 °F 100% 30.01 in 6.0 mi NW 4.6 mph - N/A   Overcast
10:42 PM 73.4 °F - 73.4 °F 100% 30.00 in 6.0 mi North 3.5 mph - N/A   Overcast
11:45 PM 73.4 °F - 73.4 °F 100% 29.99 in 6.0 mi Calm Calm - N/A   Overcast